Location: Brookfield Village
(37.7352°N, 122.1861°W)
Time: 05:10:27
(UTC+00:00)

ACS3 Solar Sail - Visible Passes

Search period start: 14 October 2024 00:00
Search period end: 24 October 2024 00:00
Orbit: 960 x 1033 km, 97.5° (Epoch: 13 October)

Date Brightness Start Highest point End Pass type
(mag) Time Alt. Az. Time Alt. Az. Time Alt. Az.
14 Oct 1.8 03:47:51 62° ENE 03:47:51 62° ENE 03:53:48 10° N visible
14 Oct 4.1 05:32:59 18° WNW 05:32:59 18° WNW 05:36:09 10° NW visible
15 Oct 3.2 02:34:22 16° ENE 02:35:29 17° ENE 02:39:22 10° NNE visible
15 Oct 2.1 04:19:29 65° NW 04:19:29 65° NW 04:24:59 10° NNW visible
16 Oct 2.6 03:05:59 30° ENE 03:06:13 30° ENE 03:11:36 10° N visible
16 Oct 3.1 04:51:06 37° WNW 04:51:06 37° WNW 04:55:48 10° NNW visible
17 Oct 2.0 03:37:38 53° NE 03:37:38 53° NE 03:43:15 10° N visible
17 Oct 4.0 05:22:45 20° WNW 05:22:45 20° WNW 05:26:03 10° NW visible
18 Oct 3.3 02:24:09 14° ENE 02:25:10 15° ENE 02:28:26 10° NNE visible
18 Oct 2.1 04:09:16 65° NNW 04:09:16 65° NNW 04:14:33 10° NNW visible
18 Oct 4.6 05:54:23 10° WNW 05:54:23 10° WNW 05:54:25 10° WNW visible
19 Oct 2.8 02:55:48 26° ENE 02:55:54 26° ENE 03:00:59 10° NNE visible
19 Oct 2.9 04:40:56 40° WNW 04:40:56 40° WNW 04:45:30 10° NNW visible
20 Oct 2.2 03:27:28 45° NE 03:27:28 45° NE 03:32:46 10° N visible
20 Oct 3.8 05:12:36 23° WNW 05:12:36 23° WNW 05:15:58 10° NW visible
21 Oct 3.5 02:14:02 12° ENE 02:14:58 12° ENE 02:17:24 10° NE visible
21 Oct 2.1 03:59:09 60° N 03:59:09 60° N 04:04:11 10° N visible
21 Oct 4.5 05:44:16 12° WNW 05:44:16 12° WNW 05:45:13 10° WNW visible
22 Oct 2.9 02:45:43 23° ENE 02:45:43 23° ENE 02:50:23 10° NNE visible
22 Oct 2.8 04:30:50 42° NW 04:30:50 42° NW 04:35:15 10° NNW visible
23 Oct 2.4 03:17:24 39° NE 03:17:24 39° NE 03:22:21 10° N visible
23 Oct 3.7 05:02:32 25° WNW 05:02:32 25° WNW 05:05:53 10° NW visible
